Location: St. Louis
(38.6270°N, 90.1994°W)
Time: 14:12:51
(UTC-06:00)

Transit 2A - Pass Details

Date: 08 December 2021
Orbit: 591 x 967 km, 66.7° (Epoch: 17 January)

Event Time Altitude Azimuth Distance (km) Brightness Sun altitude
Rises 09:14:26 0° 319° (NW) 3,652 8.9 18.3°
Reaches altitude 10° 09:17:30 10° 306° (NW) 2,682 8.3 18.6°
Maximum altitude 09:22:24 25° 255° (WSW) 1,792 7.8 19.2°
Drops below altitude 10° 09:27:05 10° 203° (SSW) 2,534 9.2 19.7°
Sets 09:29:54 0° 190° (S) 3,408 10.0 20.1°
